EDT,Max TemperatureF,Mean TemperatureF,Min TemperatureF,Max Dew PointF,MeanDew PointF,Min DewpointF,Max Humidity, Mean Humidity, Min Humidity, Max Sea Level PressureIn, Mean Sea Level PressureIn, Min Sea Level PressureIn, Max VisibilityMiles, Mean VisibilityMiles, Min VisibilityMiles, Max Wind SpeedMPH, Mean Wind SpeedMPH, Max Gust SpeedMPH,PrecipitationIn, CloudCover, Events, WindDirDegrees
2013-10-1,78,66,55,64,60,56,100,93,58,30.11,30.05,30.03,10,4,0,13,1,18,0.01,3,Fog,211
2013-10-2,79,68,57,69,61,57,100,95,68,30.14,30.09,30.05,10,3,0,7,1,,0.01,6,Fog,201
2013-10-3,80,72,64,72,67,64,100,94,62,30.11,30.07,30.02,10,4,0,8,1,,0.11,5,Fog-Rain-Thunderstorm,207
2013-10-4,84,72,61,68,65,61,100,90,58,30.11,30.06,30.02,10,5,0,10,1,17,0.01,1,Fog,194
2013-10-5,81,71,62,70,67,63,100,96,69,30.04,29.99,29.97,10,4,0,9,1,,1.37,4,Fog-Rain-Thunderstorm,192
2013-10-6,73,64,55,68,65,53,100,95,82,29.98,29.86,29.73,10,6,1,20,6,31,2.26,8,Rain-Thunderstorm,217
2013-10-7,62,54,46,49,45,43,96,76,50,30.19,30.00,29.87,10,10,2,15,8,20,0.00,4,,240
2013-10-8,68,55,42,50,46,43,100,87,40,30.31,30.24,30.19,10,5,0,9,2,18,0.01,1,Fog,46
2013-10-9,73,58,42,52,45,42,100,89,37,30.27,30.21,30.17,10,5,0,8,0,,0.01,0,Fog,52
2013-10-10,73,56,41,54,45,41,100,88,35,30.22,30.17,30.10,10,4,0,5,1,,0.01,0,Fog,57
2013-10-11,78,60,44,59,49,44,100,84,41,30.14,30.08,30.03,10,7,2,4,0,,0.01,0,Fog,230
2013-10-12,78,62,48,62,52,46,100,92,45,30.14,30.08,30.05,10,5,0,5,0,,0.01,0,Fog,50
2013-10-13,73,63,50,61,55,49,100,92,49,30.31,30.20,30.14,10,4,0,10,1,,0.01,4,Fog,358
2013-10-14,73,58,44,53,48,43,97,77,38,30.35,30.28,30.19,10,10,10,9,1,,0.01,0,,41
2013-10-15,73,62,50,63,57,50,100,87,66,30.19,30.07,29.96,10,8,5,13,4,,0.00,5,,193
2013-10-16,66,57,48,63,58,48,100,88,70,29.98,29.94,29.91,10,8,2,18,6,22,0.13,7,Rain,211
2013-10-17,57,48,41,48,45,41,100,92,69,30.02,29.95,29.90,10,5,0,12,2,20,0.12,4,Fog-Rain,289
2013-10-18,64,50,37,49,42,37,100,89,46,30.08,30.01,29.96,10,5,0,13,1,17,0.01,2,Fog,210
2013-10-19,51,44,37,47,43,37,100,91,74,30.04,29.94,29.87,10,6,1,16,3,22,0.21,5,Rain,267
2013-10-20,61,47,33,43,38,34,100,87,48,30.08,30.04,30.01,10,6,0,16,2,22,0.00,0,Fog,201
2013-10-21,66,50,36,48,40,36,100,83,43,30.06,30.01,29.92,10,6,1,17,3,22,0.00,2,Fog,219
2013-10-22,53,42,33,45,34,25,100,68,35,30.09,30.00,29.87,10,9,5,13,6,21,0.13,4,Rain,296
2013-10-23,46,42,37,43,36,27,93,78,50,30.08,29.93,29.76,10,10,9,16,6,22,0.10,8,Rain,310
2013-10-24,45,41,37,36,33,30,93,75,56,30.30,30.16,30.07,10,10,10,17,8,23,0.01,8,Rain,268
2013-10-25,48,39,30,32,28,24,92,69,41,30.48,30.40,30.32,10,10,10,13,4,16,0.00,2,,249
2013-10-26,54,40,27,39,31,25,96,70,48,30.32,30.13,29.97,10,10,9,16,5,26,0.00,4,,215
2013-10-27,57,44,32,41,35,30,100,81,42,30.15,30.11,30.07,10,7,0,5,0,,0.00,0,Fog,223
2013-10-28,64,46,30,41,34,30,100,88,35,30.32,30.21,30.13,10,5,0,5,1,,0.00,2,Fog,51
2013-10-29,57,44,32,49,42,32,100,87,62,30.39,30.31,30.23,10,8,2,4,0,,0.00,3,Fog,190
2013-10-30,63,57,51,61,56,49,100,97,88,30.21,30.14,30.03,6,3,0,8,1,,0.18,8,Fog-Rain,208
2013-10-31,66,63,59,64,59,56,100,87,75,30.02,29.68,29.39,10,8,2,33,12,43,0.60,7,Rain,198